{"data":{"norad_id":45567,"intl_designator":"2020-025AN","name":"STARLINK-1361","alt_names":[],"object_type":"PAYLOAD","status":"ACTIVE","operator":null,"country":"US","launch_date":"2020-04-22","launch_site_code":"AFETR","launch_vehicle":null,"mission":null,"orbit_class":"UNKNOWN","rcs_meters":null,"size_class":null,"mass_kg":null,"dimensions":null,"purposes":["comms"],"wikipedia_slug":null,"has_3d_model":false,"image_url":null,"decayed_at":null,"tle_current":{"epoch":"2026-05-25T03:49:49.326816Z","epoch_age_seconds":68171,"freshness":"FRESH","line1":"1 45567U 20025AN  26145.15959869  .00086417  00000+0  10555-2 0  9999","line2":"2 45567  53.0438  64.7545 0001439  65.2074 294.9087 15.59732047337447","mean_motion":15.59732047,"eccentricity":0.0001439,"inclination_deg":53.0438,"raan_deg":64.7545,"arg_perigee_deg":65.2074,"mean_anomaly_deg":294.9087,"bstar":0.0010555,"rev_number":33744,"period_min":92.323550238626,"perigee_km":387.4582323285,"apogee_km":389.40565086989,"semimajor_km":6766.5689415992,"source":"CELESTRAK","updated_at":"2026-05-25T13:38:16.423246Z"}}}